Location: G�migny
(47.9646°N, 1.6950°E)
Time: 16:58:40
(UTC+00:00)

Cosmos 1727 Rocket - Pass Details

Date: 23 October 2019
Orbit: 961 x 996 km, 82.9° (Epoch: 17 November)

Event Time Altitude Azimuth Distance (km) Brightness Sun altitude
Rises 18:07:03 0° 180° (S) 3,636 7.0 -13.4°
Reaches altitude 10° 18:09:33 10° 178° (S) 2,691 6.3 -13.8°
Maximum altitude 18:15:40 73° 95° (E) 1,009 3.9 -14.9°
Drops below altitude 10° 18:21:50 10° 12° (NNE) 2,710 6.2 -15.9°
Sets 18:24:21 0° 11° (N) 3,663 6.9 -16.3°
